Regional Weather Roundup
Issued by NWS Wakefield, VA

Home | Current Version | Previous Version | Graphics & Text | Print | Product List | Glossary On
Versions: 1 2 3 4 5 6 7 8 9 10 11 12 13 14 15 16 17 18 19 20 21 22 23 24 25 26 27 28 29 30 31 32 33 34 35 36 37 38 39 40 41 42 43 44 45 46 47 48 49 50
000
ASUS41 KAKQ 171510
RWRAKQ

REGIONAL WEATHER ROUNDUP
NATIONAL WEATHER SERVICE WAKEFIELD VA
1100 AM EDT WED SEP 17 2014

Note: "fair" indicates few or no clouds below 12,000 feet with no
significant weather and/or obstructions to visibility. * = Denotes
station may not report precipitation (e.g., rain,snow,etc.),
thunder or fog.

VAZ042-051-052>054-056-171600-
NORTHERN VIRGINIA

CITY           SKY/WX    TMP DP  RH WIND       PRES   REMARKS
WASH NATIONAL  MOSUNNY   72  53  51 CALM      30.07F
DULLES         PTSUNNY   67  52  58 NW3       30.07F
FORT BELVOIR   NOT AVBL
QUANTICO       MOSUNNY   70  57  63 N7        30.07F
FREDERICKSBRG* SUNNY     71  56  60 NE5       30.05F
STAFFORD*      MOSUNNY   70  56  62 CALM      30.10S
WARRENTON      CLOUDY    68  60  75 NE5       30.07S
CULPEPER*      PTSUNNY   68  54  60 NE3       30.07F
MANASSAS*      CLOUDY    66  55  68 CALM      30.07
LEESBURG*      CLOUDY    66  54  63 CALM      30.08S
WINCHESTER     MOSUNNY   64  50  59 S3        30.07F
FRONT ROYAL*   CLOUDY    61  52  72 CALM      30.07F
LURAY*         CLOUDY    64  52  63 E5        30.08F
$$

VAZ048-049-060>072-079>083-171600-
CENTRAL AND SOUTH CENTRAL VIRGINIA...AND NORTH CENTRAL NORTH CAROLINA

CITY           SKY/WX    TMP DP  RH WIND       PRES   REMARKS
RICHMOND       MOSUNNY   74  57  55 NE10      30.04S
CHESTERFIELD*  MOSUNNY   73  12   9 NE8       30.05F
PETERSBURG*    CLOUDY    73  54  52 NE8       30.04S
HANOVER        SUNNY     72  60  66 CALM      30.06F
TAPPAHANNOCK*  PTSUNNY   71  55  56 NE6       30.05S
CHARLOTTSVILLE PTSUNNY   68  50  52 E7        30.07F
ORANGE*        PTSUNNY   68  52  56 N6        30.07F
LOUISA*        MOSUNNY   70  55  60 E5        30.05S
FARMVILLE*     CLOUDY    72  55  56 NE7       30.03F
CREWE*         PTSUNNY   71  57  61 NE3       30.04S
FORT PICKETT*  SUNNY     71  55  56 NE8       30.04S
LUNENBURG*     PTSUNNY   70  57  64 NE5       30.03F
SOUTH HILL*    SUNNY    N/A N/A N/A NE5       30.07S
LAWRENCEVILLE* CLOUDY    70  61  73 NE5       30.03R
ROANOKE RAPIDS CLOUDY    70  63  78 NE7       30.01S
RALEIGH        PTSUNNY   73  61  65 E10       30.00S
$$

VAZ088>098-171600-
SOUTHEAST VIRGINIA

CITY           SKY/WX    TMP DP  RH WIND       PRES   REMARKS
NORFOLK        CLOUDY    72  59  63 NE13      30.01S
VIRGINIA BEACH PTSUNNY   73  60  63 NE13      30.01R
NORFOLK NAVAL  PTSUNNY   74  60  61 NE13      30.03R
WEST POINT*    MOSUNNY   77  57  50 E6        30.05S
NEWPORT NEWS   PTSUNNY   76  61  59 NE12      30.03R
LANGLEY AFB    PTSUNNY   74  62  65 E13       30.01S
FORT EUSTIS    PTSUNNY   74  57  56 E7        30.01S
WILLIAMSBURG*  MOSUNNY   73  64  73 CALM      30.04R
HR EXEC AP*    CLOUDY    73  63  68 NE8       30.03S
FRANKLIN*        N/A     72  63  73 MISG      30.02R
WAKEFIELD      PTSUNNY   73  62  68 NE6       30.02S
$$

VAZ020-022-025-037-045-171600-
WEST CENTRAL AND SOUTHWEST VIRGINIA

CITY           SKY/WX    TMP DP  RH WIND       PRES   REMARKS
STAUNTON*      PTSUNNY   64  49  57 CALM      30.10S
HOT SPRINGS VA CLOUDY    52  38  58 SE6       30.13S
LYNCHBURG      CLOUDY    65  53  65 NE7       30.08S
DANVILLE       CLOUDY    71  60  68 NE12      30.03F
SOUTH BOSTON*  NOT AVBL
MARTINSVILLE   CLOUDY    68  58  70 NE5       30.08S
ROANOKE        CLOUDY    64  50  60 SE6       30.09S
BLACKSBURG     CLOUDY    63  54  72 E7        30.10S
DUBLIN*        CLOUDY    63  55  75 E7        30.10S
MARION*        CLOUDY    62  54  76 NE8       30.10S
HILLSVILLE*    CLOUDY    60  54  79 E5        30.09S
RICHLANDS*     PTSUNNY   62  59  90 CALM      30.06S
WISE*          CLOUDY    61  55  82 N6        30.07F
ABINGDON*      CLOUDY    68  59  74 CALM      30.05S
$$

MDZ021>025-VAZ099-100-171600-
SOUTHERN MARYLAND AND THE DELMARVA PENINSULA

CITY           SKY/WX    TMP DP  RH WIND       PRES   REMARKS
PATUXENT RIVER MOSUNNY   72  54  53 E8        30.05S
BAY BRIDGE APT   N/A     70  48  46 NE5       30.06F
LEONARDTOWN    SUNNY     70  54  56 NE5       30.06S
DOVER          SUNNY     70  51  51 CALM      30.04F
GEORGETOWN     SUNNY     72  47  40 E13       30.06S
EASTON         MOSUNNY   72  54  53 E6        30.09F
CAMBRIDGE      SUNNY     72  50  46 N5        30.05S
SALISBURY      SUNNY     75  52  44 NE8       30.04F
OCEAN CITY     SUNNY     72  53  51 NE12      30.04S
WALLOPS ISLAND PTSUNNY   73  59  61 E13       30.04S
ACCOMACK*      MOSUNNY   72  59  64 NE7       30.02F
$$

NCZ012>017-030>032-171600-
EASTERN NORTH CAROLINA

CITY           SKY/WX    TMP DP  RH WIND       PRES   REMARKS
ELIZABETH CITY PTSUNNY   74  61  63 NE17      29.99S
AHOSKIE*       MOSUNNY   70  63  78 NE7       30.01S
EDENTON*       CLOUDY    74  65  72 NE8       29.99S
CURRITUCK*     CLOUDY    74  59  59 NE10      30.01S
KILL DEVIL HLS PTSUNNY   76  63  63 NE13      29.97S
MANTEO         PTSUNNY   76  64  65 NE15      29.98S
CAPE HATTERAS  CLOUDY    72  69  90 E9G21     29.96R
TARBORO*       PTSUNNY   75  65  70 NE7       30.00S
GOLDSBORO      PTSUNNY   75  70  83 NE2       29.95S
WASHINGTON     MOSUNNY   76  67  74 NE12      29.97S
GREENVILLE     MOSUNNY   73  66  78 NE10      30.00R
NEW BERN       MOSUNNY   78  68  71 NE9       29.96F
WILMINGTON     MOSUNNY   76  69  79 NE5       29.94S
$$

VAZ048-171600-
ELSEWHERE

CITY           SKY/WX    TMP DP  RH WIND       PRES   REMARKS
HARRISBURG PA  SUNNY     68  49  50 CALM      30.06F
BALTIMORE      MOSUNNY   69  51  52 E6        30.06F
ANNAPOLIS      SUNNY     68  49  50 SE6       30.06F
ANDREWS AFB    SUNNY     70  54  56 VRB3      30.06F
WILMINGTON DE  SUNNY     69  48  47 E5        30.07F
PHILADELPHIA   MOSUNNY   70  49  47 E6        30.06F
WILDWOOD NJ*   SUNNY     70  43  37 N8        30.06S
ATLANTIC CITY  SUNNY     70  45  40 NE5       30.05F
HENDERSON NC   CLOUDY    70  59  67 E10G16    30.02S
GREENSBORO     PTSUNNY   68  59  73 NE10      30.02S
ROCKY MOUNT    PTSUNNY   74  64  71 NE12      29.99F
FAYETTEVILLE   CLOUDY    73  67  81 NE8       29.96S
CHARLOTTE      CLOUDY    65  62  90 NE8       30.01R FOG
$$

VAZ100-171600-
MARINE

STATION/POSITION TIME  TEMP    WIND        PRES    WAVE   SWELL
                       AIR SEA DIR/SP/G            HT/PER HT/PER
                 (UTC) (F)     (DEG/KT/KT) (MB)    (FT/S) (FT/S)
44066 TX TWR #4  1500   67 73   20/ 10/ 14 1016.8F   4/14   3/14
CAPE MAY NJ      1500   70 75   40/  5/  7 1017.1S
LEWES DE         1500   67 70   70/ 11/ 13 1017.3F
15NM E FENWICK I 1500   69 72              1016.9F   4/15
OCEAN-CITY-INLET 1500   70 71   60/  6/ 10 1017.0S
WACHAPREAGUE VA  1500   71 73   40/ 11/ 14 1016.7F
THOMAS POINT MD  1500   66 74   50/  3/  4 1018.9F
GOOSES REEF MD   1500   67      70/  6/ 10 1018.3S
COVE POINT MD    1500   68      80/  6/  7 1017.5F
SOLOMONS ISLAND  1500      76                N/A
BISHOPS HEAD MD  1500   69 71   60/  7/  9 1016.8F
PINEY POINT MD   1500           90/  6/  8   N/A
POTOMAC MD       1400   69      70/ 10/ 12 1016.7R
CAMBRIDGE MD     1500   68 74   70/  7/  9 1017.3F
LEWISETTA VA     1500   70 73   70/  5/  9 1016.9F
RAPPAHANNOCK LGT 1500           30/  9/ 11 1017.3R
STINGRAY PT      1500   71      70/ 10/ 14   N/A
YORK RVR RNG VA  1500   71      70/ 12/ 13 1016.2S
YORKTOWN VA      1500   71 76   70/ 12/ 14 1016.4R
JAMESTOWN VA     1500   70     110/  4/  8   N/A
DOMINION TERM VA 1500   73      70/  3/  8 1016.5R
KIPTOPEKE VA     1500      79   60/  8/ 12   N/A
CHES BAY BRIDGE  1500   71 75   40/ 15/ 17 1015.7F
CAPE HENRY VA    1500   71      40/ 13/ 16 1015.0F
CHESAPEAKE LGHT  1400   71      50/ 14/ 16 1016.8R
WILLOUBY STN VA  1500   72      70/ 13/ 15 1015.1S
S CRANEY ISL VA  1500           30/ 11/ 15 1015.9F
CAPE HENRY BUOY  1500      75                N/A     4/15   3/15
1ST LANDING BUOY 1500   72      60/ 14/ 17 1016.0F
CAPE CHARLES BUO 1500      75                N/A     4/14   3/14
OFFSHORE WE BUOY 1500      74                N/A     4/14   3/14
64NM E OF VA BCH 1500   73 77   50/ 12/ 16 1015.3F   5/14   5/14
DUCK PIER NC     1500   73 76   50/ 19/ 21 1014.8F
44100 DUCK FRF   1500      74                N/A     5/14   3/14
44056 DUCK FRF   1500                        N/A     5/14   3/14
OREGON INLET NC  1500   74 76   40/ 16/ 20 1014.8R
HATTERAS NC      1500   73 79   90/  9/ 16 1014.8R
DIAMOND SHLS NC  1500   73      70/ 10/ 12 1014.0F   5/14   5/14
CAPE LOOKOUT NC  1400   78      40/  9/ 10 1013.3R
$$



USA.gov is the U.S. government's official web portal to all federal, state and local government web resources and services.